Location: Tucson
(32.2217°N, 110.9265°W)
Time: 13:30:24
(UTC-07:00)

N. Korean satellite - Visible Passes

Search period start: 23 November 2017 00:00
Search period end: 03 December 2017 00:00
Orbit: 460 x 514 km, 97.2° (Epoch: 22 November)

Date Brightness Start Highest point End Pass type
(mag) Time Alt. Az. Time Alt. Az. Time Alt. Az.
23 Nov 7.5 17:56:49 10° SE 17:59:46 26° ENE 18:02:47 10° NNE visible
23 Nov 10.0 19:31:51 10° WSW 19:33:18 12° W 19:34:45 10° WNW visible
24 Nov 8.8 19:06:44 10° SSW 19:09:41 25° W 19:12:41 10° NW visible
25 Nov 7.1 18:42:41 10° S 18:46:07 58° W 18:49:39 10° NNW visible
26 Nov 9.9 06:15:29 10° NE 06:17:53 16° E 06:20:17 10° SE visible
26 Nov 6.5 18:19:12 10° SSE 18:22:39 59° ENE 18:26:11 10° N visible
27 Nov 7.5 17:56:16 10° SE 17:59:15 26° ENE 18:02:18 10° NNE visible
27 Nov 10.0 19:31:14 10° WSW 19:32:46 12° W 19:34:20 10° WNW visible
28 Nov 8.8 19:06:09 10° SSW 19:09:08 26° W 19:12:12 10° NW visible
29 Nov 7.1 18:42:06 10° S 18:45:34 59° W 18:49:08 10° NNW visible
30 Nov 9.9 06:14:58 10° NE 06:17:21 16° E 06:19:43 10° SE visible
30 Nov 6.5 18:18:35 10° SSE 18:22:05 58° ENE 18:25:38 10° N visible
01 Dec 7.5 17:55:38 10° SE 17:58:40 26° ENE 18:01:44 10° NNE visible
01 Dec 9.9 19:30:31 10° WSW 19:32:10 13° W 19:33:50 10° WNW visible
02 Dec 8.8 19:05:28 10° SSW 19:08:31 26° W 19:11:37 10° NW visible
